Zurück zum Katalog

COSMOS 1188 DEB

LostHEO
NORAD 26677·DEBRIS·🇷🇺 Russia

Gestartet Jun 14, 1980 von Plesetsk Cosmodrome

Loading…

Nächste Überflüge (nächste 24 Stunden)

TLE

VeraltetSource: Space-Track

Epoche: Aug 16, 2025, 11:54 UTC

1 26677U 80050G   25228.49596742  .00000193  00000-0  00000-0 0  9999
2 26677  72.5294 192.9368 6000154 168.1775 354.5364  1.93165785223202

Verfolge COSMOS 1188 DEB in Echtzeit mit AllMySat

Download on the App Store